TimeMST,TemperatureF,Dew PointF,Humidity,Sea Level PressureIn,VisibilityMPH,Wind Direction,Wind SpeedMPH,Gust SpeedMPH,PrecipitationIn,Events,Conditions,WindDirDegrees,DateUTC
12:53 AM,43.0,37.9,82,30.26,10.0,Calm,Calm,-,N/A,,Clear,0,2012-11-06 07:53:00
1:53 AM,41.0,37.9,89,30.26,10.0,Calm,Calm,-,N/A,,Clear,0,2012-11-06 08:53:00
2:53 AM,39.9,37.0,89,30.26,10.0,Calm,Calm,-,N/A,,Clear,0,2012-11-06 09:53:00
3:53 AM,39.0,37.0,93,30.25,10.0,Calm,Calm,-,N/A,,Clear,0,2012-11-06 10:53:00
4:53 AM,37.9,36.0,93,30.27,10.0,Calm,Calm,-,N/A,,Clear,0,2012-11-06 11:53:00
5:53 AM,36.0,35.1,97,30.27,2.5,Calm,Calm,-,N/A,,Clear,0,2012-11-06 12:53:00
6:01 AM,35.6,33.8,93,30.23,5.0,Calm,Calm,-,N/A,,Clear,0,2012-11-06 13:01:00
6:11 AM,37.4,35.6,93,30.23,6.0,Calm,Calm,-,N/A,,Partly Cloudy,0,2012-11-06 13:11:00
6:53 AM,34.0,34.0,100,30.27,8.0,Calm,Calm,-,N/A,,Clear,0,2012-11-06 13:53:00
7:44 AM,35.6,33.8,93,30.23,1.8,Calm,Calm,-,N/A,,Clear,0,2012-11-06 14:44:00
7:53 AM,36.0,34.0,93,30.27,4.0,Calm,Calm,-,N/A,,Clear,0,2012-11-06 14:53:00
8:15 AM,35.6,33.8,93,30.23,1.8,Calm,Calm,-,N/A,,Clear,0,2012-11-06 15:15:00
8:17 AM,35.6,33.8,93,30.23,1.0,Calm,Calm,-,N/A,,Clear,0,2012-11-06 15:17:00
8:25 AM,35.6,33.8,93,30.23,1.0,Calm,Calm,-,N/A,,Mist,0,2012-11-06 15:25:00
8:27 AM,35.6,33.8,93,30.23,4.0,Calm,Calm,-,N/A,,Partly Cloudy,0,2012-11-06 15:27:00
8:53 AM,39.9,37.0,89,30.27,4.0,Calm,Calm,-,N/A,,Clear,0,2012-11-06 15:53:00
9:53 AM,43.0,39.0,86,30.25,10.0,Calm,Calm,-,N/A,,Clear,0,2012-11-06 16:53:00
10:53 AM,46.9,39.9,77,30.22,10.0,Calm,Calm,-,N/A,,Clear,0,2012-11-06 17:53:00
11:53 AM,51.1,39.9,66,30.18,10.0,Calm,Calm,-,N/A,,Clear,0,2012-11-06 18:53:00
12:53 PM,54.0,39.9,59,30.14,10.0,Calm,Calm,-,N/A,,Clear,0,2012-11-06 19:53:00
1:53 PM,55.9,42.1,60,30.10,10.0,Calm,Calm,-,N/A,,Clear,0,2012-11-06 20:53:00
2:53 PM,60.1,41.0,49,30.06,8.0,Calm,Calm,-,N/A,,Clear,0,2012-11-06 21:53:00
3:53 PM,59.0,42.1,53,30.04,10.0,Calm,Calm,-,N/A,,Clear,0,2012-11-06 22:53:00
4:53 PM,54.0,42.1,64,30.03,10.0,WNW,3.5,-,N/A,,Clear,290,2012-11-06 23:53:00
5:53 PM,50.0,42.1,74,30.02,10.0,NNW,4.6,-,N/A,,Clear,340,2012-11-07 00:53:00
6:53 PM,48.0,42.1,80,30.02,10.0,Calm,Calm,-,N/A,,Scattered Clouds,0,2012-11-07 01:53:00
7:53 PM,46.0,41.0,83,30.00,10.0,Calm,Calm,-,N/A,,Clear,0,2012-11-07 02:53:00
8:53 PM,43.0,39.0,86,29.99,10.0,Calm,Calm,-,N/A,,Clear,0,2012-11-07 03:53:00
9:53 PM,45.0,39.9,82,29.96,10.0,Calm,Calm,-,N/A,,Clear,0,2012-11-07 04:53:00
10:53 PM,42.1,37.9,85,29.95,10.0,SE,3.5,-,N/A,,Clear,130,2012-11-07 05:53:00
11:53 PM,41.0,37.9,89,29.94,10.0,NNE,3.5,-,N/A,,Clear,30,2012-11-07 06:53:00